الصفحة الرئيسية
METAR-TAF:

METAR-TAF

مطار :

Chandler Municipal Airport

Chandler, أريزونا, الولايات المتحدة

دائرة عرض: 33-16-09N, خط طول: 111-48-40W, ارتفاع: 379 متر

مراقبة الطقس الحالي

تاريخ ووقت الإصدار 6ساعات و 37 دقيقة قبل الساعة 03:47UTC
رياح هادئة
درجة الحرارة 31°درجة مئوية
الرطوبة 19%
ضغط 1013 hPa
الرؤية: 16.1 كم
سماء صافية

METAR: KCHD 290347Z 00000KT 10SM SKC 31/05 A2990 RMK LAST

زمن: 03:24 (10:24 UTC)


TAF: مفقودة

أرصاد الطقس والتوقعات من أكثر من 4000 مطار (تقارير الطقس للمطار METAR والتنبؤ بالطقس بالمطارTAF).

المحطات المتاحة هي النقط الصفراء والحمراء على الخريطة.

حرك المؤشر فوق النقطة لمعرفة اسم المحطة.

ثم انقر لمعرفة أرصاد وتوقعات الطقس.

لتغيير الخارطة: اضغط على الأزرار الخضراء مع رمز الصليب الأسود للتكبير. على الزر الأخضر مع شرطة للتصغير، أو على الأسهم الخضراء للخرائط المجاورة.


METAR-TAF: